星链-30909 (STARLINK-30909 )

导读

STARLINK-30909是美国SpaceX公司于2023年11月18日发射的星链(Starlink)互联网星座卫星,属于星链全球低轨卫星互联网组网建设的组成部分。星链项目旨在为全球偏远地区提供低延迟高速宽带服务,该卫星采用氪离子推进与自主碰撞规避技术,部署在近地轨道,为实现全球无缝覆盖的卫星互联网服务提供支撑。

Basic Information
目录编号:
58363
目录名称:
STARLINK-30909
国际标识:
2023-177N
轨道中心:
EARTH
卫星名称:
星链-30909
卫星全名:
星链-30909 (STARLINK-30909 )
卫星状态:
在轨 (已飞行1021 天)
发射日期:
2023-11-18 UTC
国别 :
美国 (US)
星等 :
--
Orbit Information
数据来源 国际轨道数据
星历时间: 2026-09-03T21:56:46+0800
21小时前
查看轨道信息
半长轴: 6861.193km
偏心率: 0.000147
轨道倾角: 43.002°
近地点辐角 266.262°
升交点赤经 65.966°
平近点角 93.807°
近地点: 482.047km
远地点: 484.065km
周期: 94.267分钟
每日圈数: 15.27578
Detailed Information
固有亮度:
5
最大亮度:
0.3
卫星平台:
Starlink v2.0 mini
覆盖范围:
全球
运营商:
太空探索技术公司
运营商所在国:
美国
制造商(研发单位):
太空探索技术公司
制造商所在国:
美国
使用方式:
暂无
Satellite Introduction
星链(Starlink)计划是由太空探索技术公司(SpaceX)提出的一个巨型低轨卫星互联网星座项目,计划在2019年至2024年间在太空搭建由约1.2万颗卫星组成的“星链”网络,其中1584颗将部署在地球上空550千米处的近地轨道,并从2020年开始工作。该卫星仍在工作。
2D Orbit Map
3D Orbit Map
Orbit Altitude Analysis Chart
Orbit Inclination Analysis Chart
Orbit Comprehensive Analysis Chart
View Comprehensive Chart
Conjunction Data List
Event ID Objects TCA Miss Dist (km) Collision Risk Probability Collision Risk Index (CRI) Action
CDM_260829-190505-836306-799522
2026-08-29T
19:05:33+0000
0.466 km
远距离
1.289286E-4 高风险 0.77